Time,TemperatureF,DewpointF,PressureIn,WindDirection,WindDirectionDegrees,WindSpeedMPH,WindSpeedGustMPH,Humidity,HourlyPrecipIn,Conditions,Clouds,dailyrainin,SoftwareType,DateUTC
2013-08-04 00:22:00,60.0,53.0,30.12,ESE,120,4.0,-999.0,78,-99.99,,,-99.99,,2013-08-04 05:22:00,
2013-08-04 00:32:00,60.0,53.0,30.12,ESE,120,4.0,-999.0,78,-99.99,,,-99.99,,2013-08-04 05:32:00,
2013-08-04 00:42:00,60.0,53.0,30.12,ESE,120,4.0,-999.0,78,-99.99,,,-99.99,,2013-08-04 05:42:00,
2013-08-04 00:52:00,60.0,53.0,30.12,ESE,120,4.0,-999.0,78,-99.99,,,-99.99,,2013-08-04 05:52:00,
2013-08-04 01:02:00,61.0,53.0,30.11,ESE,105,6.0,-999.0,74,-99.99,,,-99.99,,2013-08-04 06:02:00,
2013-08-04 01:12:00,61.0,53.0,30.11,ESE,105,6.0,-999.0,74,-99.99,,,-99.99,,2013-08-04 06:12:00,
2013-08-04 01:22:00,60.0,52.0,30.09,SE,129,6.0,-999.0,74,-99.99,,,-99.99,,2013-08-04 06:22:00,
2013-08-04 01:32:00,60.0,52.0,30.09,SE,129,6.0,-999.0,74,-99.99,,,-99.99,,2013-08-04 06:32:00,
2013-08-04 01:43:00,60.0,52.0,30.09,ESE,119,7.0,-999.0,74,-99.99,,,-99.99,,2013-08-04 06:43:00,
2013-08-04 01:52:00,59.0,51.0,30.08,ESE,123,7.0,-999.0,76,-99.99,,,-99.99,,2013-08-04 06:52:00,
2013-08-04 02:02:00,59.0,51.0,30.08,ESE,123,7.0,-999.0,76,-99.99,,,-99.99,,2013-08-04 07:02:00,
2013-08-04 02:12:00,59.0,51.0,30.07,ESE,120,7.0,-999.0,75,-99.99,,,-99.99,,2013-08-04 07:12:00,
2013-08-04 02:22:00,59.0,51.0,30.06,ESE,113,7.0,-999.0,76,-99.99,,,-99.99,,2013-08-04 07:22:00,
2013-08-04 02:32:00,59.0,51.0,30.06,ESE,113,7.0,-999.0,76,-99.99,,,-99.99,,2013-08-04 07:32:00,
2013-08-04 02:43:00,58.0,50.0,30.05,ESE,123,8.0,-999.0,75,-99.99,,,-99.99,,2013-08-04 07:43:00,
2013-08-04 02:52:00,58.0,50.0,30.05,SE,125,9.0,-999.0,76,-99.99,,,-99.99,,2013-08-04 07:52:00,
2013-08-04 03:02:00,58.0,50.0,30.05,SE,125,9.0,-999.0,76,-99.99,,,-99.99,,2013-08-04 08:02:00,
2013-08-04 03:12:00,58.0,51.0,30.05,SE,130,8.0,-999.0,77,-99.99,,,-99.99,,2013-08-04 08:12:00,
2013-08-04 03:22:00,57.0,50.0,30.04,ESE,120,7.0,-999.0,78,-99.99,,,-99.99,,2013-08-04 08:22:00,
2013-08-04 03:32:00,57.0,50.0,30.04,ESE,120,7.0,-999.0,78,-99.99,,,-99.99,,2013-08-04 08:32:00,
2013-08-04 03:43:00,58.0,51.0,30.03,ESE,122,8.0,-999.0,78,-99.99,,,-99.99,,2013-08-04 08:43:00,
2013-08-04 03:53:00,57.0,51.0,30.04,ESE,117,6.0,-999.0,79,-99.99,,,-99.99,,2013-08-04 08:53:00,
2013-08-04 04:02:00,57.0,51.0,30.04,ESE,117,6.0,-999.0,79,-99.99,,,-99.99,,2013-08-04 09:02:00,
2013-08-04 04:12:00,57.0,51.0,30.03,ESE,122,6.0,-999.0,80,-99.99,,,-99.99,,2013-08-04 09:12:00,
2013-08-04 04:22:00,56.0,50.0,30.03,ESE,121,6.0,-999.0,80,-99.99,,,-99.99,,2013-08-04 09:22:00,
2013-08-04 04:32:00,56.0,50.0,30.03,ESE,121,6.0,-999.0,80,-99.99,,,-99.99,,2013-08-04 09:32:00,
2013-08-04 04:43:00,56.0,50.0,30.03,ESE,117,6.0,-999.0,80,-99.99,,,-99.99,,2013-08-04 09:43:00,
2013-08-04 04:52:00,56.0,50.0,30.03,ESE,117,5.0,-999.0,81,-99.99,,,-99.99,,2013-08-04 09:52:00,
2013-08-04 05:02:00,56.0,50.0,30.03,ESE,117,5.0,-999.0,81,-99.99,,,-99.99,,2013-08-04 10:02:00,
2013-08-04 05:12:00,56.0,50.0,30.03,ESE,120,6.0,-999.0,81,-99.99,,,-99.99,,2013-08-04 10:12:00,
2013-08-04 05:22:00,55.0,50.0,30.03,ESE,119,4.0,-999.0,82,-99.99,,,-99.99,,2013-08-04 10:22:00,
2013-08-04 05:32:00,55.0,50.0,30.03,ESE,119,4.0,-999.0,82,-99.99,,,-99.99,,2013-08-04 10:32:00,
2013-08-04 05:42:00,56.0,51.0,30.03,ESE,117,4.0,-999.0,82,-99.99,,,-99.99,,2013-08-04 10:42:00,
2013-08-04 05:53:00,57.0,51.0,30.03,SE,126,6.0,-999.0,79,-99.99,,,-99.99,,2013-08-04 10:53:00,
2013-08-04 06:02:00,57.0,51.0,30.03,SE,126,6.0,-999.0,79,-99.99,,,-99.99,,2013-08-04 11:02:00,
2013-08-04 06:12:00,57.0,50.0,30.03,ESE,121,6.0,-999.0,78,-99.99,,,-99.99,,2013-08-04 11:12:00,
2013-08-04 06:22:00,57.0,50.0,30.02,SE,128,7.0,-999.0,78,-99.99,,,-99.99,,2013-08-04 11:22:00,
2013-08-04 06:32:00,57.0,50.0,30.02,SE,128,7.0,-999.0,78,-99.99,,,-99.99,,2013-08-04 11:32:00,
2013-08-04 06:42:00,57.0,50.0,30.02,ESE,121,6.0,-999.0,77,-99.99,,,-99.99,,2013-08-04 11:42:00,
2013-08-04 06:53:00,57.0,50.0,30.02,ESE,123,8.0,-999.0,78,-99.99,,,-99.99,,2013-08-04 11:53:00,
2013-08-04 07:02:00,57.0,50.0,30.02,ESE,123,8.0,-999.0,78,-99.99,,,-99.99,,2013-08-04 12:02:00,
2013-08-04 07:12:00,57.0,50.0,30.01,SE,133,8.0,-999.0,77,-99.99,,,-99.99,,2013-08-04 12:12:00,
2013-08-04 07:22:00,57.0,50.0,30.01,SE,136,8.0,-999.0,77,-99.99,,,-99.99,,2013-08-04 12:22:00,
2013-08-04 07:32:00,57.0,50.0,30.01,SE,136,8.0,-999.0,77,-99.99,,,-99.99,,2013-08-04 12:32:00,
2013-08-04 07:43:00,58.0,51.0,30.01,SE,132,8.0,-999.0,77,-99.99,,,-99.99,,2013-08-04 12:43:00,
2013-08-04 07:53:00,58.0,51.0,30.01,SE,136,9.0,-999.0,77,-99.99,,,-99.99,,2013-08-04 12:53:00,
2013-08-04 08:02:00,58.0,51.0,30.01,SE,136,9.0,-999.0,77,-99.99,,,-99.99,,2013-08-04 13:02:00,
2013-08-04 08:12:00,58.0,51.0,30.02,SE,138,7.0,-999.0,78,-99.99,,,-99.99,,2013-08-04 13:12:00,
2013-08-04 08:22:00,59.0,52.0,30.02,SE,141,7.0,-999.0,77,-99.99,,,-99.99,,2013-08-04 13:22:00,
2013-08-04 08:32:00,59.0,52.0,30.02,SE,141,7.0,-999.0,77,-99.99,,,-99.99,,2013-08-04 13:32:00,
2013-08-04 08:43:00,59.0,52.0,30.02,SE,138,8.0,-999.0,77,-99.99,,,-99.99,,2013-08-04 13:43:00,
2013-08-04 08:52:00,60.0,52.0,30.01,SE,138,8.0,-999.0,76,-99.99,,,-99.99,,2013-08-04 13:52:00,
2013-08-04 09:02:00,60.0,52.0,30.01,SE,138,8.0,-999.0,76,-99.99,,,-99.99,,2013-08-04 14:02:00,
2013-08-04 09:12:00,60.0,52.0,30.01,SE,125,9.0,-999.0,75,-99.99,,,-99.99,,2013-08-04 14:12:00,
2013-08-04 09:22:00,60.0,52.0,30.01,SE,125,9.0,-999.0,75,-99.99,,,-99.99,,2013-08-04 14:22:00,
2013-08-04 09:32:00,60.0,52.0,30.01,SE,125,9.0,-999.0,75,-99.99,,,-99.99,,2013-08-04 14:32:00,
2013-08-04 09:43:00,64.0,55.0,30.00,SE,145,9.0,-999.0,72,-99.99,,,-99.99,,2013-08-04 14:43:00,
2013-08-04 09:53:00,65.0,56.0,30.00,SSE,154,11.0,-999.0,72,-99.99,,,-99.99,,2013-08-04 14:53:00,
2013-08-04 10:02:00,65.0,56.0,30.00,SSE,154,11.0,-999.0,72,-99.99,,,-99.99,,2013-08-04 15:02:00,
2013-08-04 10:12:00,66.0,56.0,30.00,SSE,153,10.0,-999.0,71,-99.99,,,-99.99,,2013-08-04 15:12:00,
2013-08-04 10:22:00,66.0,57.0,29.99,SE,142,10.0,-999.0,72,-99.99,,,-99.99,,2013-08-04 15:22:00,
2013-08-04 10:32:00,66.0,57.0,29.99,SE,142,10.0,-999.0,72,-99.99,,,-99.99,,2013-08-04 15:32:00,
2013-08-04 10:42:00,66.0,57.0,29.99,SE,132,9.0,-999.0,73,-99.99,,,-99.99,,2013-08-04 15:42:00,
2013-08-04 10:53:00,66.0,57.0,29.99,SSE,156,10.0,-999.0,74,-99.99,,,-99.99,,2013-08-04 15:53:00,
2013-08-04 11:02:00,66.0,57.0,29.99,SSE,156,10.0,-999.0,74,-99.99,,,-99.99,,2013-08-04 16:02:00,
2013-08-04 11:12:00,67.0,58.0,29.98,SSE,159,7.0,-999.0,74,-99.99,,,-99.99,,2013-08-04 16:12:00,
2013-08-04 11:22:00,67.0,58.0,29.98,SW,221,6.0,-999.0,74,-99.99,,,-99.99,,2013-08-04 16:22:00,
2013-08-04 11:33:00,67.0,58.0,29.98,SW,221,6.0,-999.0,74,-99.99,,,-99.99,,2013-08-04 16:33:00,
2013-08-04 11:42:00,66.0,58.0,29.98,SSW,209,4.0,-999.0,75,-99.99,,,-99.99,,2013-08-04 16:42:00,
2013-08-04 11:53:00,65.0,58.0,29.98,South,172,4.0,-999.0,77,-99.99,,,-99.99,,2013-08-04 16:53:00,
2013-08-04 12:02:00,65.0,58.0,29.98,South,172,4.0,-999.0,77,-99.99,,,-99.99,,2013-08-04 17:02:00,
2013-08-04 12:12:00,65.0,58.0,29.98,South,184,5.0,-999.0,78,-99.99,,,-99.99,,2013-08-04 17:12:00,
2013-08-04 12:22:00,65.0,59.0,29.97,South,182,4.0,-999.0,80,-99.99,,,-99.99,,2013-08-04 17:22:00,
2013-08-04 12:32:00,65.0,59.0,29.97,South,182,4.0,-999.0,80,-99.99,,,-99.99,,2013-08-04 17:32:00,
2013-08-04 12:43:00,64.0,58.0,29.97,SW,215,6.0,-999.0,80,-99.99,,,-99.99,,2013-08-04 17:43:00,
2013-08-04 12:53:00,65.0,59.0,29.96,SSW,207,4.0,-999.0,82,-99.99,,,-99.99,,2013-08-04 17:53:00,
2013-08-04 13:02:00,65.0,59.0,29.96,SSW,207,4.0,-999.0,82,-99.99,,,-99.99,,2013-08-04 18:02:00,
2013-08-04 13:12:00,64.0,59.0,29.96,SW,214,6.0,-999.0,84,-99.99,,,-99.99,,2013-08-04 18:12:00,
2013-08-04 13:22:00,63.0,59.0,29.96,SSW,209,3.0,-999.0,87,-99.99,,,-99.99,,2013-08-04 18:22:00,
2013-08-04 13:33:00,63.0,59.0,29.96,SSW,209,3.0,-999.0,87,-99.99,,,-99.99,,2013-08-04 18:33:00,
2013-08-04 13:43:00,63.0,59.0,29.95,South,189,4.0,-999.0,87,-99.99,,,-99.99,,2013-08-04 18:43:00,
2013-08-04 13:52:00,63.0,60.0,29.95,SSE,167,3.0,-999.0,90,-99.99,,,-99.99,,2013-08-04 18:52:00,
2013-08-04 14:02:00,63.0,60.0,29.95,SSE,167,3.0,-999.0,90,-99.99,,,-99.99,,2013-08-04 19:02:00,
2013-08-04 14:12:00,64.0,61.0,29.94,SSW,195,2.0,-999.0,91,-99.99,,,-99.99,,2013-08-04 19:12:00,
2013-08-04 14:22:00,64.0,61.0,29.93,South,181,4.0,-999.0,90,-99.99,,,-99.99,,2013-08-04 19:22:00,
2013-08-04 14:33:00,64.0,61.0,29.93,South,181,4.0,-999.0,90,-99.99,,,-99.99,,2013-08-04 19:33:00,
2013-08-04 14:43:00,65.0,61.0,29.93,SSE,152,6.0,-999.0,88,-99.99,,,-99.99,,2013-08-04 19:43:00,
2013-08-04 14:53:00,65.0,61.0,29.93,SSE,159,5.0,-999.0,88,-99.99,,,-99.99,,2013-08-04 19:53:00,
2013-08-04 15:02:00,65.0,61.0,29.93,SSE,159,5.0,-999.0,88,-99.99,,,-99.99,,2013-08-04 20:02:00,
2013-08-04 15:12:00,67.0,63.0,29.93,SSE,167,7.0,-999.0,86,-99.99,,,-99.99,,2013-08-04 20:12:00,
2013-08-04 15:22:00,67.0,61.0,29.92,SSW,211,5.0,-999.0,82,-99.99,,,-99.99,,2013-08-04 20:22:00,
2013-08-04 15:33:00,67.0,61.0,29.92,SSW,211,5.0,-999.0,82,-99.99,,,-99.99,,2013-08-04 20:33:00,
2013-08-04 15:42:00,67.0,61.0,29.92,South,188,6.0,-999.0,81,-99.99,,,-99.99,,2013-08-04 20:42:00,
2013-08-04 15:53:00,67.0,61.0,29.91,SW,215,4.0,-999.0,82,-99.99,,,-99.99,,2013-08-04 20:53:00,
2013-08-04 16:02:00,67.0,61.0,29.91,SW,215,4.0,-999.0,82,-99.99,,,-99.99,,2013-08-04 21:02:00,
2013-08-04 16:12:00,67.0,61.0,29.91,SSW,210,6.0,-999.0,81,-99.99,,,-99.99,,2013-08-04 21:12:00,
2013-08-04 16:22:00,68.0,62.0,29.91,SSW,211,3.0,-999.0,80,-99.99,,,-99.99,,2013-08-04 21:22:00,
2013-08-04 16:32:00,68.0,62.0,29.91,SSW,211,3.0,-999.0,80,-99.99,,,-99.99,,2013-08-04 21:32:00,
2013-08-04 16:43:00,68.0,61.0,29.91,SSW,207,5.0,-999.0,79,-99.99,,,-99.99,,2013-08-04 21:43:00,
2013-08-04 16:53:00,68.0,61.0,29.90,SW,216,2.0,-999.0,79,-99.99,,,-99.99,,2013-08-04 21:53:00,
2013-08-04 17:02:00,68.0,61.0,29.90,SW,216,2.0,-999.0,79,-99.99,,,-99.99,,2013-08-04 22:02:00,
2013-08-04 17:12:00,68.0,61.0,29.90,WSW,240,4.0,-999.0,78,-99.99,,,-99.99,,2013-08-04 22:12:00,
2013-08-04 17:22:00,68.0,61.0,29.89,WSW,242,3.0,-999.0,79,-99.99,,,-99.99,,2013-08-04 22:22:00,
2013-08-04 17:32:00,68.0,61.0,29.89,WSW,242,3.0,-999.0,79,-99.99,,,-99.99,,2013-08-04 22:32:00,
2013-08-04 17:43:00,68.0,61.0,29.88,WSW,242,1.0,-999.0,77,-99.99,,,-99.99,,2013-08-04 22:43:00,
2013-08-04 17:53:00,69.0,61.0,29.88,WSW,250,3.0,-999.0,75,-99.99,,,-99.99,,2013-08-04 22:53:00,
2013-08-04 18:02:00,69.0,61.0,29.88,WSW,250,3.0,-999.0,75,-99.99,,,-99.99,,2013-08-04 23:02:00,
2013-08-04 18:12:00,68.0,61.0,29.88,WSW,250,1.0,-999.0,77,-99.99,,,-99.99,,2013-08-04 23:12:00,
2013-08-04 18:22:00,68.0,61.0,29.88,WSW,250,2.0,-999.0,77,-99.99,,,-99.99,,2013-08-04 23:22:00,
2013-08-04 18:32:00,68.0,61.0,29.88,WSW,250,2.0,-999.0,77,-99.99,,,-99.99,,2013-08-04 23:32:00,
2013-08-04 18:43:00,68.0,61.0,29.88,WSW,250,2.0,-999.0,77,-99.99,,,-99.99,,2013-08-04 23:43:00,
2013-08-04 18:53:00,68.0,60.0,29.88,WSW,252,2.0,-999.0,76,-99.99,,,-99.99,,2013-08-04 23:53:00,
2013-08-04 19:02:00,68.0,60.0,29.88,WSW,252,2.0,-999.0,76,-99.99,,,-99.99,,2013-08-05 00:02:00,
2013-08-04 19:12:00,69.0,61.0,29.88,WSW,255,4.0,-999.0,76,-99.99,,,-99.99,,2013-08-05 00:12:00,
2013-08-04 19:22:00,69.0,61.0,29.88,West,270,5.0,-999.0,75,-99.99,,,-99.99,,2013-08-05 00:22:00,
2013-08-04 19:32:00,69.0,61.0,29.88,West,270,5.0,-999.0,75,-99.99,,,-99.99,,2013-08-05 00:32:00,
2013-08-04 19:42:00,68.0,61.0,29.87,West,270,4.0,-999.0,77,-99.99,,,-99.99,,2013-08-05 00:42:00,
2013-08-04 19:52:00,69.0,61.0,29.87,West,270,4.0,-999.0,76,-99.99,,,-99.99,,2013-08-05 00:52:00,
2013-08-04 20:02:00,69.0,61.0,29.87,West,270,4.0,-999.0,76,-99.99,,,-99.99,,2013-08-05 01:02:00,
2013-08-04 20:12:00,69.0,61.0,29.86,West,271,3.0,-999.0,75,-99.99,,,-99.99,,2013-08-05 01:12:00,
2013-08-04 20:22:00,68.0,61.0,29.85,West,271,0.0,-999.0,79,-99.99,,,-99.99,,2013-08-05 01:22:00,
2013-08-04 20:33:00,68.0,61.0,29.85,West,271,0.0,-999.0,79,-99.99,,,-99.99,,2013-08-05 01:33:00,
2013-08-04 20:42:00,66.0,60.0,29.85,West,271,2.0,-999.0,82,-99.99,,,-99.99,,2013-08-05 01:42:00,
2013-08-04 20:52:00,65.0,60.0,29.85,West,271,2.0,-999.0,84,-99.99,,,-99.99,,2013-08-05 01:52:00,
2013-08-04 21:02:00,65.0,60.0,29.85,West,271,2.0,-999.0,84,-99.99,,,-99.99,,2013-08-05 02:02:00,
2013-08-04 21:12:00,64.0,60.0,29.86,West,271,2.0,-999.0,86,-99.99,,,-99.99,,2013-08-05 02:12:00,
2013-08-04 21:22:00,64.0,60.0,29.88,North,360,8.0,-999.0,88,-99.99,,,-99.99,,2013-08-05 02:22:00,
2013-08-04 21:33:00,64.0,60.0,29.88,North,360,8.0,-999.0,88,-99.99,,,-99.99,,2013-08-05 02:33:00,
2013-08-04 21:43:00,63.0,60.0,29.88,NNE,17,6.0,-999.0,90,-99.99,,,-99.99,,2013-08-05 02:43:00,
2013-08-04 21:53:00,62.0,59.0,29.88,North,5,6.0,-999.0,91,-99.99,,,-99.99,,2013-08-05 02:53:00,
2013-08-04 22:02:00,62.0,59.0,29.88,North,5,6.0,-999.0,91,-99.99,,,-99.99,,2013-08-05 03:02:00,
2013-08-04 22:12:00,61.0,59.0,29.89,NNE,26,3.0,-999.0,92,-99.99,,,-99.99,,2013-08-05 03:12:00,
2013-08-04 22:22:00,61.0,59.0,29.90,NNE,25,4.0,-999.0,93,-99.99,,,-99.99,,2013-08-05 03:22:00,
2013-08-04 22:32:00,61.0,59.0,29.90,NNE,25,4.0,-999.0,93,-99.99,,,-99.99,,2013-08-05 03:32:00,
2013-08-04 22:42:00,61.0,59.0,29.90,NNE,18,4.0,-999.0,93,-99.99,,,-99.99,,2013-08-05 03:42:00,
2013-08-04 22:52:00,60.0,58.0,29.91,NNE,30,5.0,-999.0,94,-99.99,,,-99.99,,2013-08-05 03:52:00,
2013-08-04 23:02:00,60.0,58.0,29.91,NNE,30,5.0,-999.0,94,-99.99,,,-99.99,,2013-08-05 04:02:00,
2013-08-04 23:12:00,60.0,58.0,29.90,NNE,28,4.0,-999.0,94,-99.99,,,-99.99,,2013-08-05 04:12:00,
2013-08-04 23:22:00,60.0,58.0,29.90,NNE,28,4.0,-999.0,94,-99.99,,,-99.99,,2013-08-05 04:22:00,
2013-08-04 23:32:00,60.0,58.0,29.90,NNE,28,4.0,-999.0,94,-99.99,,,-99.99,,2013-08-05 04:32:00,
2013-08-04 23:43:00,60.0,58.0,29.90,North,5,6.0,-999.0,94,-99.99,,,-99.99,,2013-08-05 04:43:00,
2013-08-04 23:52:00,60.0,58.0,29.90,North,355,6.0,-999.0,94,-99.99,,,-99.99,,2013-08-05 04:52:00,